McComb, MS

6:35 AM CDT on August 21, 2017 (GMT -0500)
McComb-Pike County-Lewis

Weather History for KMCB - October, 2012

Change the Weather History Date:

Wednesday, October 31, 2012

  Actual Average Record
Temperature  
Mean Temperature 58 °F -  
Max Temperature 75 °F 74 °F 88 °F (2016)
Min Temperature 42 °F 52 °F 27 °F (1993)
Degree Days  
Heating Degree Days 6    
Growing Degree Days 8 (Base 50)    
Moisture  
Dew Point 49 °F    
Average Humidity 74    
Maximum Humidity 93    
Minimum Humidity 44    
Precipitation  
Precipitation 0.00 in - - ()
Sea Level Pressure  
Sea Level Pressure 30.00 in    
Wind  
Wind Speed 2 mph (West)    
Max Wind Speed 10 mph    
Max Gust Speed -    
Visibility 10 miles    
Events      
Averages and records for this station are not official NWS values.
T = Trace of Precipitation, MM = Missing Value Source: NWS Daily Summary

Daily Weather History Graph

Daily Weather History Graph

Search for Another Location

Airport or City:

Trip Planner

Search our weather history database for the weather conditions in past years. The results will help you decide how hot, cold, wet, or windy it might be!

Date:

Astronomy

Oct. 31, 2012 Rise Set
Actual Time 7:16 AM CDT 6:13 PM CDT
Civil Twilight 6:51 AM CDT 6:38 PM CDT
Nautical Twilight 6:23 AM CDT 7:07 PM CDT
Astronomical Twilight 5:54 AM CDT 7:35 PM CDT
Moon 7:32 PM CDT (10/31) 8:51 AM CDT (10/31)
Length of Visible Light 11h 46m
Length of Day
10h 56m
Full, 97% of the Moon is Illuminated
Oct 31
Full
Nov 6
Last Quarter
Nov 13
New
Nov 20
First Quarter
Nov 28
Full

Hourly Weather History & Observations

Time (CDT) Temp. Dew Point Humidity Pressure Visibility Wind Dir Wind Speed Gust Speed Precip Events Conditions
12:53 AM 43.0 °F 39.9 °F 89% 30.02 in 10.0 mi Calm Calm - N/A   Clear
1:53 AM 43.0 °F 39.0 °F 86% 30.02 in 10.0 mi Calm Calm - N/A   Clear
2:53 AM 42.1 °F 39.0 °F 89% 30.02 in 10.0 mi Calm Calm - N/A   Clear
3:53 AM 42.1 °F 39.0 °F 89% 30.01 in 10.0 mi Calm Calm - N/A   Clear
4:53 AM 43.0 °F 41.0 °F 93% 30.02 in 10.0 mi Calm Calm - N/A   Overcast
5:53 AM 43.0 °F 41.0 °F 93% 30.02 in 10.0 mi Calm Calm - N/A   Scattered Clouds
6:53 AM 42.1 °F 39.9 °F 92% 30.02 in 10.0 mi Calm Calm - N/A   Mostly Cloudy
7:53 AM 43.0 °F 41.0 °F 93% 30.04 in 10.0 mi Calm Calm - N/A   Clear
8:53 AM 54.0 °F 50.0 °F 86% 30.05 in 10.0 mi Variable 3.5 mph - N/A   Clear
9:53 AM 62.1 °F 54.0 °F 75% 30.05 in 10.0 mi West 6.9 mph - N/A   Clear
10:53 AM 68.0 °F 55.9 °F 65% 30.04 in 10.0 mi West 9.2 mph - N/A   Clear
11:53 AM 72.0 °F 55.0 °F 55% 30.03 in 10.0 mi West 8.1 mph - N/A   Clear
12:53 PM 73.9 °F 55.0 °F 52% 30.01 in 10.0 mi NW 10.4 mph - N/A   Clear
2:53 PM 73.9 °F 53.1 °F 48% 29.96 in 10.0 mi WSW 9.2 mph - N/A   Partly Cloudy
3:53 PM 75.0 °F 52.0 °F 44% 29.94 in 10.0 mi WSW 9.2 mph - N/A   Scattered Clouds
4:53 PM 75.0 °F 53.1 °F 46% 29.95 in 10.0 mi West 5.8 mph - N/A   Partly Cloudy
5:53 PM 72.0 °F 55.0 °F 55% 29.95 in 10.0 mi Calm Calm - N/A   Clear
7:53 PM 60.1 °F 55.9 °F 86% 29.96 in 10.0 mi Calm Calm - N/A   Clear
8:53 PM 64.0 °F 55.9 °F 75% 29.96 in 10.0 mi SSW 3.5 mph - N/A   Overcast
9:53 PM 63.0 °F 55.0 °F 75% 29.96 in 10.0 mi Calm Calm - N/A   Mostly Cloudy
10:53 PM 64.0 °F 55.9 °F 75% 29.99 in 10.0 mi WNW 3.5 mph - 0.00 in   Overcast